IBE1ND LEZL-EVRA

Flight info

Callsign IBE1ND
Flight time N/A
Altitude 40000
Route HIJ N10 VTB N871 TOPTU DCT ESISI DCT ENUPA DCT RLP DCT LUPEN/N0489F410 DCT LOHRE N746 MAG DCT BODLA Z717 EMGAR/N0489F390 Z717 KUNER/K0906F390 M155 TIGNU/N0490F390 DCT ASKOR
Aircraft A359/H-SDE2E3GHIJ3J4J5LM1ORWXY/LB1D1

Departure

Time 2026-04-14 12:45
Airport Seville Airport (LEZL)

Arrival

Time N/A
Airport Riga International Airport (EVRA)
Time Latitude Longitude Altitude Speed Heading
2026-04-14 12:15 37.42098 -5.90186 100 ft 0 kts 32°
2026-04-14 12:34 37.42094 -5.90190 100 ft 4 kts 29°
2026-04-14 12:34 37.42076 -5.90199 101 ft 4 kts 348°
2026-04-14 12:34 37.42061 -5.90191 98 ft 4 kts 302°
2026-04-14 12:34 37.42052 -5.90165 99 ft 4 kts 272°
2026-04-14 12:35 37.42052 -5.90159 99 ft 4 kts 270°
2026-04-14 12:39 37.42052 -5.90185 100 ft 10 kts 270°
2026-04-14 12:39 37.42043 -5.90270 102 ft 11 kts 242°
2026-04-14 12:39 37.41991 -5.90320 104 ft 9 kts 237°
2026-04-14 12:39 37.41980 -5.90418 100 ft 14 kts 271°
2026-04-14 12:40 37.41979 -5.90553 99 ft 17 kts 269°
2026-04-14 12:40 37.41978 -5.90723 98 ft 21 kts 270°
2026-04-14 12:40 37.41977 -5.90926 97 ft 25 kts 269°
2026-04-14 12:40 37.41977 -5.91039 96 ft 0 kts 270°
2026-04-14 12:41 37.41977 -5.91047 96 ft 2 kts 270°
2026-04-14 12:41 37.41977 -5.91084 96 ft 7 kts 270°
2026-04-14 12:41 37.41977 -5.91163 95 ft 11 kts 269°
2026-04-14 12:41 37.41963 -5.91271 97 ft 11 kts 242°
2026-04-14 12:42 37.41960 -5.91276 97 ft 0 kts 236°
2026-04-14 12:43 37.41957 -5.91281 97 ft 1 kts 234°
2026-04-14 12:43 37.41945 -5.91301 96 ft 5 kts 232°
2026-04-14 12:43 37.41918 -5.91320 95 ft 4 kts 182°
2026-04-14 12:43 37.41882 -5.91311 98 ft 6 kts 161°
2026-04-14 12:44 37.41849 -5.91264 98 ft 9 kts 125°
2026-04-14 12:44 37.41806 -5.91186 98 ft 13 kts 124°
2026-04-14 12:44 37.41790 -5.91108 99 ft 0 kts 93°
2026-04-14 12:45 37.41788 -5.91056 100 ft 32 kts 93°
2026-04-14 12:45 37.41790 -5.90411 104 ft 113 kts 89°
2026-04-14 12:45 37.41797 -5.89136 221 ft 168 kts 88°
2026-04-14 12:45 37.41800 -5.87714 1209 ft 157 kts 87°
2026-04-14 12:46 37.41817 -5.86330 2111 ft 164 kts 88°
2026-04-14 12:46 37.41864 -5.84857 2859 ft 169 kts 84°
2026-04-14 12:46 37.41982 -5.83402 3542 ft 168 kts 81°
2026-04-14 12:46 37.42059 -5.81852 3854 ft 188 kts 82°
2026-04-14 12:47 37.42225 -5.80124 4128 ft 210 kts 78°
2026-04-14 12:47 37.42482 -5.78246 4546 ft 225 kts 77°
2026-04-14 12:47 37.43070 -5.76352 4822 ft 244 kts 50°
2026-04-14 12:47 37.44435 -5.75054 5389 ft 251 kts 25°
2026-04-14 12:48 37.46035 -5.74117 6113 ft 256 kts 23°
2026-04-14 12:48 37.47671 -5.73187 6831 ft 260 kts 24°
2026-04-14 12:48 37.49325 -5.72220 7498 ft 264 kts 24°
2026-04-14 12:48 37.50988 -5.71235 7932 ft 265 kts 24°
2026-04-14 12:49 37.52668 -5.70230 8469 ft 269 kts 24°
2026-04-14 12:49 37.54357 -5.69213 9254 ft 270 kts 24°
2026-04-14 12:49 37.56052 -5.68192 10046 ft 271 kts 24°
2026-04-14 12:49 37.57771 -5.67154 10601 ft 280 kts 24°
2026-04-14 12:50 37.59580 -5.66060 10911 ft 296 kts 24°
2026-04-14 12:50 37.63487 -5.63692 11471 ft 326 kts 24°
2026-04-14 12:50 37.65571 -5.62427 11807 ft 337 kts 24°
2026-04-14 12:51 37.67697 -5.61136 12301 ft 341 kts 24°
2026-04-14 12:51 37.69819 -5.59844 12816 ft 345 kts 24°
2026-04-14 12:51 37.72019 -5.58506 13379 ft 348 kts 24°
2026-04-14 12:51 37.74181 -5.57190 13908 ft 351 kts 24°
2026-04-14 12:52 37.76386 -5.55847 14414 ft 353 kts 24°
2026-04-14 12:52 37.78604 -5.54495 14878 ft 355 kts 24°
2026-04-14 12:52 37.80838 -5.53131 15378 ft 358 kts 24°
2026-04-14 12:52 37.82810 -5.51926 15824 ft 359 kts 24°
2026-04-14 12:53 37.85063 -5.50549 16301 ft 361 kts 24°
2026-04-14 12:53 37.87339 -5.49160 16779 ft 364 kts 24°
2026-04-14 12:53 37.89624 -5.47766 17270 ft 365 kts 24°
2026-04-14 12:53 37.91919 -5.46363 17752 ft 367 kts 24°
2026-04-14 12:54 37.94228 -5.44947 18199 ft 370 kts 23°
2026-04-14 12:54 37.96554 -5.43522 18625 ft 373 kts 23°
2026-04-14 12:54 37.98897 -5.42084 18990 ft 376 kts 23°
2026-04-14 12:54 38.01256 -5.40635 19390 ft 378 kts 23°
2026-04-14 12:55 38.03622 -5.39183 19778 ft 380 kts 23°
2026-04-14 12:55 38.06014 -5.37714 20167 ft 382 kts 23°
2026-04-14 12:55 38.08416 -5.36236 20533 ft 385 kts 23°
2026-04-14 12:55 38.10832 -5.34749 20910 ft 387 kts 23°
2026-04-14 12:56 38.13267 -5.33249 21284 ft 390 kts 23°
2026-04-14 12:56 38.15710 -5.31743 21647 ft 392 kts 23°
2026-04-14 12:56 38.18175 -5.30223 22020 ft 394 kts 23°
2026-04-14 12:56 38.20647 -5.28697 22370 ft 397 kts 23°
2026-04-14 12:57 38.23136 -5.27159 22720 ft 399 kts 23°
2026-04-14 12:57 38.25644 -5.25609 23073 ft 402 kts 23°
2026-04-14 12:57 38.28160 -5.24052 23436 ft 404 kts 23°
2026-04-14 12:57 38.30699 -5.22480 23774 ft 406 kts 23°
2026-04-14 12:58 38.33247 -5.20900 24069 ft 408 kts 23°
2026-04-14 12:58 38.35807 -5.19313 24407 ft 409 kts 23°
2026-04-14 12:58 38.38364 -5.17725 24763 ft 410 kts 22°
2026-04-14 12:58 38.40935 -5.16128 25105 ft 411 kts 22°
2026-04-14 12:59 38.43481 -5.14545 25448 ft 413 kts 22°
2026-04-14 12:59 38.46060 -5.12940 25797 ft 414 kts 22°
2026-04-14 12:59 38.48643 -5.11300 26157 ft 416 kts 24°
2026-04-14 12:59 38.51114 -5.09324 26492 ft 422 kts 33°
2026-04-14 13:00 38.53376 -5.06905 26878 ft 426 kts 38°
2026-04-14 13:00 38.55543 -5.04312 27254 ft 429 kts 40°
2026-04-14 13:00 38.57673 -5.01625 27641 ft 431 kts 40°
2026-04-14 13:00 38.59787 -4.98902 28050 ft 433 kts 40°
2026-04-14 13:01 38.61915 -4.96159 28476 ft 435 kts 40°
2026-04-14 13:01 38.64059 -4.93413 28897 ft 436 kts 40°
2026-04-14 13:01 38.66220 -4.90665 29312 ft 439 kts 40°
2026-04-14 13:01 38.68395 -4.87913 29732 ft 441 kts 40°
2026-04-14 13:02 38.70583 -4.85152 30177 ft 443 kts 40°
2026-04-14 13:02 38.72788 -4.82372 30566 ft 445 kts 40°
2026-04-14 13:02 38.74972 -4.79617 30954 ft 447 kts 40°
2026-04-14 13:02 38.77187 -4.76819 31420 ft 448 kts 39°
2026-04-14 13:03 38.79411 -4.74007 31791 ft 450 kts 39°
2026-04-14 13:03 38.81645 -4.71180 32181 ft 452 kts 39°
2026-04-14 13:03 38.83891 -4.68334 32569 ft 454 kts 39°
2026-04-14 13:03 38.86140 -4.65482 32926 ft 456 kts 39°
2026-04-14 13:04 38.88402 -4.62609 33282 ft 458 kts 39°
2026-04-14 13:04 38.90669 -4.59727 33632 ft 460 kts 39°
2026-04-14 13:04 38.92942 -4.56834 34021 ft 460 kts 39°
2026-04-14 13:04 38.95212 -4.53943 34495 ft 458 kts 39°
2026-04-14 13:05 38.97463 -4.51072 35023 ft 455 kts 39°
2026-04-14 13:05 38.99672 -4.48246 35498 ft 452 kts 39°
2026-04-14 13:05 39.01891 -4.45404 36008 ft 449 kts 39°
2026-04-14 13:05 39.04102 -4.42572 36467 ft 447 kts 39°
2026-04-14 13:06 39.06300 -4.39756 36930 ft 445 kts 38°
2026-04-14 13:06 39.08489 -4.36951 37444 ft 443 kts 38°
2026-04-14 13:06 39.10662 -4.34163 37936 ft 440 kts 38°
2026-04-14 13:06 39.12828 -4.31381 38407 ft 438 kts 38°
2026-04-14 13:07 39.14983 -4.28612 38871 ft 436 kts 38°
2026-04-14 13:07 39.17124 -4.25859 39234 ft 435 kts 38°
2026-04-14 13:07 39.19271 -4.23098 39501 ft 436 kts 38°
2026-04-14 13:07 39.21417 -4.20337 39726 ft 437 kts 38°
2026-04-14 13:08 39.23570 -4.17564 39972 ft 438 kts 38°
2026-04-14 13:08 39.25722 -4.14790 40166 ft 440 kts 38°
2026-04-14 13:08 39.27889 -4.11992 40211 ft 439 kts 38°
2026-04-14 13:09 39.32202 -4.06406 40197 ft 439 kts 38°
2026-04-14 13:09 39.36511 -4.00816 40213 ft 439 kts 38°
2026-04-14 13:10 39.40825 -3.95212 40211 ft 439 kts 38°